Weather in Akhisar

Turkey     38°55′31″N   27°50′04″E
В апреле 2022 года жителям России запретили посещать сайт meteo.paraplan.net по решению Генеральной прокуратуры. Аудитория сайта уменьшилась в 10 раз. Владельцы сайта не видят смысла в поддержке погодного сервера в таких условиях. Сайт будет закрыт в октябре.
temp.,
°C
wind,
m/s
gust,
m/s
humid.,
%
clouds,
%
prec.,
mm/h
press.,
hPa
HPBL,
m
3 october, mon
mon300:00+17nnw34520 0.0 101475
03:00+15n34650 0.0 101479
06:00+14n46710 0.0 1014102
09:00+17n57560 0.0 1014449
12:00+24nne67270 0.0 10121198
15:00+27n57190 0.0 10101536
18:00+24n69260 0.0 10101032
21:00+17n47450 0.0 1011126
4 october, tue
tue400:00+15n46530 0.0 1012103
03:00+13n47690 0.0 1013164
06:00+12n47813 0.0 1013159
09:00+17n610550 0.0 1015847
12:00+21n78310 0.0 10151376
15:00+23n77270 0.0 10141644
18:00+20n79350 0.0 10161160
21:00+14n59480 0.0 1018256
5 october, wed
wed500:00+12nnw48690 0.0 1019171
03:00+11n46810 0.0 1020123
06:00+10n46890 0.0 1021117
09:00+14nne510690 0.0 1022684
12:00+20nne78370 0.0 10211260
15:00+23nne99290 0.0 10191931
18:00+19n812440 0.0 1019875
21:00+15n611610 0.0 1021442
6 october, thu
thu600:00+13n48700 0.0 1022187
03:00+12n47790 0.0 1021172
06:00+11n47854 0.0 1021158
09:00+14n586815 0.0 1021488
12:00+21nne67411 0.0 10191055
15:00+26nne89300 0.0 10171826
18:00+21n1014434 0.0 1018932
21:00+16n71262100 0.0 1020558
7 october, fri
fri700:00+14n597477 0.0 1020297
03:00+13n4882100 0.0 1020197
06:00+12n478920 0.0 1019148
09:00+16nne610683 0.0 1019783
12:00+21nne89410 0.0 10181411
15:00+24nne1011290 0.0 10161985
18:00+20n913440 0.0 10161245
21:00+16n713630 0.0 1018673